map of HNC home
Great Circle Mapper logo
HNC - Airport
Location
City:  Hatteras, North Carolina, United States
Name:Billy Mitchell Airport
ICAO:KHSE
IATA:HNC
FAA LID:HSE

Details
Type:Airport (Airfield)
Use:Public/Civil
Latitude:3513'58"N (35.232806)
Longitude:7537'04"W (-75.617805)
Datum:WGS 1984
Elevation:16 ft (5 m)
Variation:10.88W (WMM2015 magnetic declination)
-0.02 annual change
Runways:1
Longest:3002 × 75 ft (915 × 23 m), paved

Time
Time Zone:UTC-5 (DST-4)
Local Time:

Weather
METAR:KHSE 270551Z AUTO 20006KT 10SM CLR 22/17 A3014 RMK AO2 SLP207 T02220172 10228 20222 58012 TSNO

Related Locations
Nearby:
Farthest:MQZ: 11826 mi / 19033 km
Margaret River [Margaret River Airport], WA, AU

Find:

   beyond  
but within

Other Information
Maps:
NOTAMs:
Links:
Sources:

  
flag of United States
flag of North Carolina
  

Sectional Chart

Flight Planning
at skyvector.com

Satellite Image

Google Maps Satellite view

 

Copyright © 2004-2016 Karl L. Swartz. All rights reserved.
The Great Circle Mapper name and logo are trademarks of the Great Circle Mapper.
All other trademarks mentioned herein belong to their respective owners.
Please see credits for attibutions and further copyright information.

  Follow gcmap on Facebook Follow gcmap on Twitter Follow gcmap on Google+ GCmap on LinkedIn

hCard Microformat

Geo Microformat